Time,TemperatureF,DewpointF,PressureIn,WindDirection,WindDirectionDegrees,WindSpeedMPH,WindSpeedGustMPH,Humidity,HourlyPrecipIn,Conditions,Clouds,dailyrainin,SoftwareType,DateUTC
2013-05-04 00:01:00,58.8,53.3,29.98,South,180,0.0,0.0,82,0.00,,,0.00,WUHU21623XXSP,2013-05-04 04:01:00,
2013-05-04 00:06:00,58.8,53.3,29.98,South,180,0.0,0.0,82,0.00,,,0.00,WUHU21623XXSP,2013-05-04 04:06:00,
2013-05-04 00:11:00,58.8,53.7,29.98,SSW,202,0.0,0.0,83,0.00,,,0.00,WUHU21623XXSP,2013-05-04 04:11:00,
2013-05-04 00:16:00,58.8,53.7,29.98,SSW,202,0.0,0.0,83,0.00,,,0.00,WUHU21623XXSP,2013-05-04 04:16:00,
2013-05-04 00:21:00,58.8,53.7,29.98,SSW,202,0.0,0.0,83,0.00,,,0.00,WUHU21623XXSP,2013-05-04 04:21:00,
2013-05-04 00:26:00,58.8,53.7,29.98,South,180,0.0,0.0,83,0.00,,,0.00,WUHU21623XXSP,2013-05-04 04:26:00,
2013-05-04 00:31:00,58.8,53.7,29.98,ESE,112,0.0,0.0,83,0.00,,,0.00,WUHU21623XXSP,2013-05-04 04:31:00,
2013-05-04 00:36:00,58.5,53.6,29.98,West,270,0.0,0.0,84,0.00,,,0.00,WUHU21623XXSP,2013-05-04 04:36:00,
2013-05-04 00:41:00,58.3,53.5,29.98,South,180,0.0,0.0,84,0.00,,,0.00,WUHU21623XXSP,2013-05-04 04:41:00,
2013-05-04 00:46:00,58.3,53.5,29.97,South,180,0.0,0.0,84,0.00,,,0.00,WUHU21623XXSP,2013-05-04 04:46:00,
2013-05-04 00:51:00,58.1,53.3,29.98,South,180,0.0,0.0,84,0.00,,,0.00,WUHU21623XXSP,2013-05-04 04:51:00,
2013-05-04 00:56:00,57.9,53.1,29.97,ESE,112,0.0,0.0,84,0.00,,,0.00,WUHU21623XXSP,2013-05-04 04:56:00,
2013-05-04 01:01:00,57.9,53.1,29.97,ESE,112,0.0,0.0,84,0.00,,,0.00,WUHU21623XXSP,2013-05-04 05:01:00,
2013-05-04 01:07:00,57.9,53.1,29.97,South,180,0.0,0.0,84,0.00,,,0.00,WUHU21623XXSP,2013-05-04 05:07:00,
2013-05-04 01:11:00,58.1,53.3,29.97,South,180,0.0,0.0,84,0.00,,,0.00,WUHU21623XXSP,2013-05-04 05:11:00,
2013-05-04 01:17:00,58.1,53.0,29.97,South,180,0.0,0.0,83,0.00,,,0.00,WUHU21623XXSP,2013-05-04 05:17:00,
2013-05-04 01:22:00,58.1,53.3,29.97,SSW,202,0.0,0.0,84,0.00,,,0.00,WUHU21623XXSP,2013-05-04 05:22:00,
2013-05-04 01:27:00,57.9,53.1,29.97,South,180,0.0,0.0,84,0.00,,,0.00,WUHU21623XXSP,2013-05-04 05:27:00,
2013-05-04 01:32:00,57.9,53.1,29.97,South,180,0.0,0.0,84,0.00,,,0.00,WUHU21623XXSP,2013-05-04 05:32:00,
2013-05-04 01:37:00,57.7,52.9,29.96,SSW,202,0.0,0.0,84,0.00,,,0.00,WUHU21623XXSP,2013-05-04 05:37:00,
2013-05-04 01:42:00,57.7,52.9,29.96,South,180,0.0,0.0,84,0.00,,,0.00,WUHU21623XXSP,2013-05-04 05:42:00,
2013-05-04 01:47:00,57.6,52.7,29.96,SSW,202,0.0,0.0,84,0.00,,,0.00,WUHU21623XXSP,2013-05-04 05:47:00,
2013-05-04 01:52:00,57.4,52.6,29.96,South,180,0.0,0.0,84,0.00,,,0.00,WUHU21623XXSP,2013-05-04 05:52:00,
2013-05-04 01:57:00,57.4,52.9,29.96,South,180,0.0,0.0,85,0.00,,,0.00,WUHU21623XXSP,2013-05-04 05:57:00,
2013-05-04 02:02:00,57.2,52.7,29.95,South,180,0.0,0.0,85,0.00,,,0.00,WUHU21623XXSP,2013-05-04 06:02:00,
2013-05-04 02:07:00,57.0,52.5,29.96,SSW,202,0.0,0.0,85,0.00,,,0.00,WUHU21623XXSP,2013-05-04 06:07:00,
2013-05-04 02:12:00,57.2,52.7,29.95,South,180,0.0,0.0,85,0.00,,,0.00,WUHU21623XXSP,2013-05-04 06:12:00,
2013-05-04 02:17:00,57.0,52.5,29.95,South,180,0.0,0.0,85,0.00,,,0.00,WUHU21623XXSP,2013-05-04 06:17:00,
2013-05-04 02:22:00,57.0,52.5,29.95,South,180,0.0,0.0,85,0.00,,,0.00,WUHU21623XXSP,2013-05-04 06:22:00,
2013-05-04 02:27:00,57.0,52.5,29.94,South,180,0.0,0.0,85,0.00,,,0.00,WUHU21623XXSP,2013-05-04 06:27:00,
2013-05-04 02:32:00,57.0,52.5,29.95,South,180,0.0,0.0,85,0.00,,,0.00,WUHU21623XXSP,2013-05-04 06:32:00,
2013-05-04 02:37:00,57.0,52.5,29.94,South,180,0.0,0.0,85,0.00,,,0.00,WUHU21623XXSP,2013-05-04 06:37:00,
2013-05-04 02:42:00,57.0,52.5,29.94,SSW,202,0.0,0.0,85,0.00,,,0.00,WUHU21623XXSP,2013-05-04 06:42:00,
2013-05-04 02:47:00,57.0,52.5,29.94,SSW,202,0.0,0.0,85,0.00,,,0.00,WUHU21623XXSP,2013-05-04 06:47:00,
2013-05-04 02:52:00,57.0,52.5,29.94,South,180,0.0,0.0,85,0.00,,,0.00,WUHU21623XXSP,2013-05-04 06:52:00,
2013-05-04 02:57:00,57.0,52.5,29.94,South,180,0.0,0.0,85,0.00,,,0.00,WUHU21623XXSP,2013-05-04 06:57:00,
2013-05-04 03:02:00,57.0,52.5,29.94,South,180,0.0,0.0,85,0.00,,,0.00,WUHU21623XXSP,2013-05-04 07:02:00,
2013-05-04 03:07:00,57.0,52.5,29.93,South,180,0.0,0.0,85,0.00,,,0.00,WUHU21623XXSP,2013-05-04 07:07:00,
2013-05-04 03:12:00,57.0,52.5,29.93,South,180,0.0,0.0,85,0.00,,,0.00,WUHU21623XXSP,2013-05-04 07:12:00,
2013-05-04 03:17:00,57.0,52.5,29.93,South,180,0.0,0.0,85,0.00,,,0.00,WUHU21623XXSP,2013-05-04 07:17:00,
2013-05-04 03:22:00,57.0,52.5,29.92,South,180,0.0,0.0,85,0.00,,,0.00,WUHU21623XXSP,2013-05-04 07:22:00,
2013-05-04 03:27:00,57.0,52.5,29.92,South,180,0.0,0.0,85,0.00,,,0.00,WUHU21623XXSP,2013-05-04 07:27:00,
2013-05-04 03:32:00,57.0,52.5,29.92,ESE,112,0.0,0.0,85,0.00,,,0.00,WUHU21623XXSP,2013-05-04 07:32:00,
2013-05-04 03:37:00,57.0,52.5,29.92,South,180,0.0,0.0,85,0.00,,,0.00,WUHU21623XXSP,2013-05-04 07:37:00,
2013-05-04 03:42:00,57.0,52.5,29.92,South,180,0.0,0.0,85,0.00,,,0.00,WUHU21623XXSP,2013-05-04 07:42:00,
2013-05-04 03:47:00,57.0,52.5,29.92,South,180,0.0,0.0,85,0.00,,,0.00,WUHU21623XXSP,2013-05-04 07:47:00,
2013-05-04 03:52:00,57.0,52.5,29.91,South,180,0.0,0.0,85,0.00,,,0.00,WUHU21623XXSP,2013-05-04 07:52:00,
2013-05-04 03:57:00,57.0,52.5,29.92,SSW,202,0.0,0.0,85,0.00,,,0.00,WUHU21623XXSP,2013-05-04 07:57:00,
2013-05-04 04:02:00,57.0,52.5,29.92,South,180,0.0,0.0,85,0.00,,,0.00,WUHU21623XXSP,2013-05-04 08:02:00,
2013-05-04 04:07:00,57.0,52.5,29.91,South,180,0.0,0.0,85,0.00,,,0.00,WUHU21623XXSP,2013-05-04 08:07:00,
2013-05-04 04:12:00,57.0,52.5,29.91,South,180,0.0,0.0,85,0.00,,,0.00,WUHU21623XXSP,2013-05-04 08:12:00,
2013-05-04 04:17:00,57.0,52.5,29.91,South,180,0.0,0.0,85,0.00,,,0.00,WUHU21623XXSP,2013-05-04 08:17:00,
2013-05-04 04:22:00,57.0,52.5,29.91,South,180,0.0,0.0,85,0.00,,,0.00,WUHU21623XXSP,2013-05-04 08:22:00,
2013-05-04 04:27:00,56.8,52.3,29.91,South,180,0.0,0.0,85,0.00,,,0.00,WUHU21623XXSP,2013-05-04 08:27:00,
2013-05-04 04:32:00,56.8,52.3,29.91,South,180,0.0,0.0,85,0.00,,,0.00,WUHU21623XXSP,2013-05-04 08:32:00,
2013-05-04 04:37:00,56.8,52.3,29.91,South,180,0.0,0.0,85,0.00,,,0.00,WUHU21623XXSP,2013-05-04 08:37:00,
2013-05-04 04:42:00,56.8,52.3,29.92,South,180,0.0,0.0,85,0.00,,,0.00,WUHU21623XXSP,2013-05-04 08:42:00,
2013-05-04 04:47:00,56.8,52.3,29.92,South,180,0.0,0.0,85,0.00,,,0.00,WUHU21623XXSP,2013-05-04 08:47:00,
2013-05-04 04:52:00,56.8,52.3,29.92,South,180,0.0,0.0,85,0.00,,,0.00,WUHU21623XXSP,2013-05-04 08:52:00,
2013-05-04 04:57:00,56.8,52.3,29.92,South,180,0.0,0.0,85,0.00,,,0.00,WUHU21623XXSP,2013-05-04 08:57:00,
2013-05-04 05:02:00,56.8,52.3,29.92,South,180,0.0,0.0,85,0.00,,,0.00,WUHU21623XXSP,2013-05-04 09:02:00,
2013-05-04 05:07:00,56.8,52.3,29.92,South,180,0.0,0.0,85,0.00,,,0.00,WUHU21623XXSP,2013-05-04 09:07:00,
2013-05-04 05:12:00,56.8,52.3,29.92,South,180,0.0,0.0,85,0.00,,,0.00,WUHU21623XXSP,2013-05-04 09:12:00,
2013-05-04 05:17:00,56.8,52.3,29.92,South,180,0.0,0.0,85,0.00,,,0.00,WUHU21623XXSP,2013-05-04 09:17:00,
2013-05-04 05:22:00,56.8,52.3,29.92,South,180,0.0,0.0,85,0.00,,,0.00,WUHU21623XXSP,2013-05-04 09:22:00,
2013-05-04 05:27:00,56.8,52.3,29.92,South,180,0.0,0.0,85,0.00,,,0.00,WUHU21623XXSP,2013-05-04 09:27:00,
2013-05-04 05:32:00,56.8,52.3,29.92,South,180,0.0,0.0,85,0.00,,,0.00,WUHU21623XXSP,2013-05-04 09:32:00,
2013-05-04 05:37:00,56.8,52.3,29.93,South,180,0.0,0.0,85,0.00,,,0.00,WUHU21623XXSP,2013-05-04 09:37:00,
2013-05-04 05:42:00,56.7,52.2,29.93,South,180,0.0,0.0,85,0.00,,,0.00,WUHU21623XXSP,2013-05-04 09:42:00,
2013-05-04 05:47:00,56.5,52.0,29.93,South,180,0.0,0.0,85,0.00,,,0.00,WUHU21623XXSP,2013-05-04 09:47:00,
2013-05-04 05:52:00,56.3,51.8,29.93,South,180,0.0,0.0,85,0.00,,,0.00,WUHU21623XXSP,2013-05-04 09:52:00,
2013-05-04 05:57:00,56.1,51.9,29.93,South,180,0.0,0.0,86,0.00,,,0.00,WUHU21623XXSP,2013-05-04 09:57:00,
2013-05-04 06:02:00,56.1,51.9,29.93,South,180,0.0,0.0,86,0.00,,,0.00,WUHU21623XXSP,2013-05-04 10:02:00,
2013-05-04 06:07:00,55.9,51.8,29.92,South,180,0.0,0.0,86,0.00,,,0.00,WUHU21623XXSP,2013-05-04 10:07:00,
2013-05-04 06:12:00,55.9,52.1,29.92,South,180,0.0,0.0,87,0.00,,,0.00,WUHU21623XXSP,2013-05-04 10:12:00,
2013-05-04 06:17:00,55.8,51.9,29.92,South,180,0.0,0.0,87,0.00,,,0.00,WUHU21623XXSP,2013-05-04 10:17:00,
2013-05-04 06:22:00,55.8,51.9,29.92,South,180,0.0,0.0,87,0.00,,,0.00,WUHU21623XXSP,2013-05-04 10:22:00,
2013-05-04 06:27:00,55.8,51.9,29.92,ESE,112,0.0,0.0,87,0.00,,,0.00,WUHU21623XXSP,2013-05-04 10:27:00,
2013-05-04 06:32:00,55.6,51.7,29.92,SSW,202,0.0,0.0,87,0.00,,,0.00,WUHU21623XXSP,2013-05-04 10:32:00,
2013-05-04 06:37:00,55.6,51.7,29.93,SSW,202,0.0,0.0,87,0.00,,,0.00,WUHU21623XXSP,2013-05-04 10:37:00,
2013-05-04 06:42:00,55.6,51.7,29.94,SSW,202,0.0,0.0,87,0.00,,,0.00,WUHU21623XXSP,2013-05-04 10:42:00,
2013-05-04 06:47:00,55.6,51.7,29.94,SSW,202,0.0,0.0,87,0.00,,,0.00,WUHU21623XXSP,2013-05-04 10:47:00,
2013-05-04 06:52:00,55.8,51.9,29.94,West,270,0.0,0.0,87,0.00,,,0.00,WUHU21623XXSP,2013-05-04 10:52:00,
2013-05-04 06:57:00,55.8,51.9,29.94,West,270,0.0,0.0,87,0.00,,,0.00,WUHU21623XXSP,2013-05-04 10:57:00,
2013-05-04 07:02:00,55.6,51.4,29.94,SSW,202,0.0,0.0,86,0.00,,,0.00,WUHU21623XXSP,2013-05-04 11:02:00,
2013-05-04 07:07:00,55.6,51.4,29.94,SSW,202,0.0,0.0,86,0.00,,,0.00,WUHU21623XXSP,2013-05-04 11:07:00,
2013-05-04 07:12:00,55.4,51.2,29.95,SSW,202,0.0,0.0,86,0.00,,,0.00,WUHU21623XXSP,2013-05-04 11:12:00,
2013-05-04 07:17:00,55.2,51.0,29.95,West,270,0.0,0.0,86,0.00,,,0.00,WUHU21623XXSP,2013-05-04 11:17:00,
2013-05-04 07:22:00,55.0,50.9,29.95,SSW,202,0.0,0.0,86,0.02,,,0.02,WUHU21623XXSP,2013-05-04 11:22:00,
2013-05-04 07:27:00,55.0,50.9,29.96,SSW,202,0.0,0.0,86,0.02,,,0.02,WUHU21623XXSP,2013-05-04 11:27:00,
2013-05-04 07:32:00,54.7,50.8,29.95,SSW,202,0.0,0.0,87,0.04,,,0.04,WUHU21623XXSP,2013-05-04 11:32:00,
2013-05-04 07:37:00,54.5,50.7,29.96,SSW,202,0.0,0.0,87,0.04,,,0.04,WUHU21623XXSP,2013-05-04 11:37:00,
2013-05-04 07:43:00,54.3,50.5,29.96,SSW,202,0.0,0.0,87,0.04,,,0.04,WUHU21623XXSP,2013-05-04 11:43:00,
2013-05-04 07:48:00,54.1,50.3,29.97,SSW,202,0.0,0.0,87,0.07,,,0.07,WUHU21623XXSP,2013-05-04 11:48:00,
2013-05-04 07:53:00,54.1,50.3,29.97,SSW,202,0.0,0.0,87,0.07,,,0.07,WUHU21623XXSP,2013-05-04 11:53:00,
2013-05-04 07:58:00,54.0,50.1,29.97,SSW,202,0.0,0.0,87,0.09,,,0.09,WUHU21623XXSP,2013-05-04 11:58:00,
2013-05-04 08:04:00,53.8,50.3,29.97,West,270,0.0,0.0,88,0.13,,,0.13,WUHU21623XXSP,2013-05-04 12:04:00,
2013-05-04 08:09:00,53.4,49.9,29.97,West,270,0.0,0.0,88,0.13,,,0.13,WUHU21623XXSP,2013-05-04 12:09:00,
2013-05-04 08:14:00,53.4,49.9,29.98,West,270,0.0,0.0,88,0.13,,,0.13,WUHU21623XXSP,2013-05-04 12:14:00,
2013-05-04 08:19:00,53.4,49.9,29.97,West,270,0.0,0.0,88,0.13,,,0.13,WUHU21623XXSP,2013-05-04 12:19:00,
2013-05-04 08:24:00,53.2,49.7,29.96,South,180,0.0,0.0,88,0.11,,,0.13,WUHU21623XXSP,2013-05-04 12:24:00,
2013-05-04 08:29:00,53.4,49.9,29.96,South,180,0.0,0.0,88,0.09,,,0.13,WUHU21623XXSP,2013-05-04 12:29:00,
2013-05-04 08:34:00,53.4,49.9,29.95,ESE,112,0.0,0.0,88,0.09,,,0.13,WUHU21623XXSP,2013-05-04 12:34:00,
2013-05-04 08:39:00,53.4,49.9,29.95,South,180,0.0,0.0,88,0.09,,,0.13,WUHU21623XXSP,2013-05-04 12:39:00,
2013-05-04 08:44:00,53.2,49.7,29.95,ESE,112,0.0,0.0,88,0.11,,,0.15,WUHU21623XXSP,2013-05-04 12:44:00,
2013-05-04 08:50:00,52.7,49.2,29.95,East,90,0.0,0.0,88,0.12,,,0.19,WUHU21623XXSP,2013-05-04 12:50:00,
2013-05-04 08:55:00,52.5,49.0,29.94,East,90,0.0,0.0,88,0.12,,,0.21,WUHU21623XXSP,2013-05-04 12:55:00,
2013-05-04 09:00:00,52.5,49.0,29.95,East,90,0.0,0.0,88,0.12,,,0.21,WUHU21623XXSP,2013-05-04 13:00:00,
2013-05-04 09:05:00,52.3,48.8,29.96,East,90,0.0,0.0,88,0.08,,,0.21,WUHU21623XXSP,2013-05-04 13:05:00,
2013-05-04 09:10:00,52.5,49.0,29.96,East,90,0.0,0.0,88,0.08,,,0.21,WUHU21623XXSP,2013-05-04 13:10:00,
2013-05-04 09:13:00,52.3,48.8,29.96,East,90,0.0,0.0,88,0.10,,,0.23,WUHU21623XXSP,2013-05-04 13:13:00,
2013-05-04 09:18:00,52.5,49.0,29.95,East,90,0.0,0.0,88,0.10,,,0.23,WUHU21623XXSP,2013-05-04 13:18:00,
2013-05-04 09:23:00,52.5,49.0,29.95,East,90,0.0,0.0,88,0.12,,,0.25,WUHU21623XXSP,2013-05-04 13:23:00,
2013-05-04 09:28:00,52.5,49.0,29.95,East,90,0.0,0.0,88,0.12,,,0.25,WUHU21623XXSP,2013-05-04 13:28:00,
2013-05-04 09:33:00,52.7,49.2,29.95,East,90,0.0,0.0,88,0.12,,,0.25,WUHU21623XXSP,2013-05-04 13:33:00,
2013-05-04 09:38:00,52.9,49.4,29.94,East,90,0.0,0.0,88,0.12,,,0.25,WUHU21623XXSP,2013-05-04 13:38:00,
2013-05-04 09:43:00,53.1,49.6,29.94,East,90,0.0,0.0,88,0.10,,,0.25,WUHU21623XXSP,2013-05-04 13:43:00,
2013-05-04 09:48:00,52.9,49.4,29.94,East,90,0.0,0.0,88,0.07,,,0.25,WUHU21623XXSP,2013-05-04 13:48:00,
2013-05-04 09:53:00,53.4,49.9,29.94,East,90,0.0,0.0,88,0.04,,,0.25,WUHU21623XXSP,2013-05-04 13:53:00,
2013-05-04 09:58:00,53.4,49.9,29.94,East,90,0.0,0.0,88,0.04,,,0.25,WUHU21623XXSP,2013-05-04 13:58:00,
2013-05-04 10:03:00,53.6,50.1,29.94,East,90,0.0,0.0,88,0.04,,,0.25,WUHU21623XXSP,2013-05-04 14:03:00,
2013-05-04 10:08:00,53.8,50.3,29.94,East,90,0.0,0.0,88,0.04,,,0.25,WUHU21623XXSP,2013-05-04 14:08:00,
2013-05-04 10:13:00,53.4,49.9,29.93,East,90,0.0,0.0,88,0.02,,,0.25,WUHU21623XXSP,2013-05-04 14:13:00,
2013-05-04 10:18:00,53.4,49.9,29.94,East,90,0.0,0.0,88,0.02,,,0.25,WUHU21623XXSP,2013-05-04 14:18:00,
2013-05-04 10:23:00,53.8,50.3,29.94,East,90,0.0,0.0,88,0.00,,,0.25,WUHU21623XXSP,2013-05-04 14:23:00,
2013-05-04 10:28:00,54.0,50.5,29.94,East,90,0.0,0.0,88,0.00,,,0.25,WUHU21623XXSP,2013-05-04 14:28:00,
2013-05-04 10:33:00,54.1,50.6,29.94,East,90,0.0,0.0,88,0.00,,,0.25,WUHU21623XXSP,2013-05-04 14:33:00,
2013-05-04 10:38:00,54.3,50.8,29.94,East,90,0.0,0.0,88,0.00,,,0.25,WUHU21623XXSP,2013-05-04 14:38:00,
2013-05-04 10:43:00,54.5,51.0,29.94,East,90,0.0,0.0,88,0.00,,,0.25,WUHU21623XXSP,2013-05-04 14:43:00,
2013-05-04 10:48:00,54.5,51.0,29.94,East,90,0.0,0.0,88,0.00,,,0.25,WUHU21623XXSP,2013-05-04 14:48:00,
2013-05-04 10:53:00,55.0,51.2,29.94,East,90,0.0,0.0,87,0.00,,,0.25,WUHU21623XXSP,2013-05-04 14:53:00,
2013-05-04 10:58:00,55.0,51.2,29.95,East,90,0.0,0.0,87,0.00,,,0.25,WUHU21623XXSP,2013-05-04 14:58:00,
2013-05-04 11:03:00,55.0,51.2,29.95,East,90,0.0,0.0,87,0.00,,,0.25,WUHU21623XXSP,2013-05-04 15:03:00,
2013-05-04 11:08:00,54.7,50.8,29.95,East,90,0.0,0.0,87,0.00,,,0.25,WUHU21623XXSP,2013-05-04 15:08:00,
2013-05-04 11:13:00,54.5,50.7,29.95,East,90,0.0,0.0,87,0.00,,,0.25,WUHU21623XXSP,2013-05-04 15:13:00,
2013-05-04 11:18:00,54.5,50.7,29.96,East,90,0.0,0.0,87,0.00,,,0.25,WUHU21623XXSP,2013-05-04 15:18:00,
2013-05-04 11:23:00,54.7,50.8,29.96,East,90,0.0,0.0,87,0.00,,,0.25,WUHU21623XXSP,2013-05-04 15:23:00,
2013-05-04 11:28:00,54.7,50.8,29.96,East,90,0.0,0.0,87,0.00,,,0.25,WUHU21623XXSP,2013-05-04 15:28:00,
2013-05-04 11:33:00,54.9,51.0,29.95,East,90,0.0,0.0,87,0.00,,,0.25,WUHU21623XXSP,2013-05-04 15:33:00,
2013-05-04 11:38:00,55.0,51.2,29.95,East,90,0.0,0.0,87,0.00,,,0.25,WUHU21623XXSP,2013-05-04 15:38:00,
2013-05-04 11:43:00,55.2,51.0,29.95,East,90,0.0,0.0,86,0.00,,,0.25,WUHU21623XXSP,2013-05-04 15:43:00,
2013-05-04 11:48:00,55.6,51.7,29.94,East,90,0.0,0.0,87,0.00,,,0.25,WUHU21623XXSP,2013-05-04 15:48:00,
2013-05-04 11:53:00,55.8,51.9,29.94,East,90,0.0,0.0,87,0.00,,,0.25,WUHU21623XXSP,2013-05-04 15:53:00,
2013-05-04 11:58:00,55.9,52.1,29.94,East,90,0.0,0.0,87,0.00,,,0.25,WUHU21623XXSP,2013-05-04 15:58:00,
2013-05-04 12:03:00,55.9,52.1,29.94,East,90,0.0,0.0,87,0.00,,,0.25,WUHU21623XXSP,2013-05-04 16:03:00,
2013-05-04 12:08:00,55.6,51.7,29.94,East,90,0.0,0.0,87,0.00,,,0.25,WUHU21623XXSP,2013-05-04 16:08:00,
2013-05-04 12:13:00,56.1,52.3,29.94,East,90,0.0,0.0,87,0.00,,,0.25,WUHU21623XXSP,2013-05-04 16:13:00,
2013-05-04 12:18:00,55.9,52.1,29.94,East,90,0.0,0.0,87,0.00,,,0.25,WUHU21623XXSP,2013-05-04 16:18:00,
2013-05-04 12:23:00,55.9,51.8,29.94,East,90,0.0,0.0,86,0.00,,,0.25,WUHU21623XXSP,2013-05-04 16:23:00,
2013-05-04 12:28:00,56.1,51.9,29.95,East,90,0.0,0.0,86,0.00,,,0.25,WUHU21623XXSP,2013-05-04 16:28:00,
2013-05-04 12:34:00,56.3,52.1,29.95,East,90,0.0,0.0,86,0.00,,,0.25,WUHU21623XXSP,2013-05-04 16:34:00,
2013-05-04 12:38:00,56.1,51.9,29.95,East,90,0.0,0.0,86,0.00,,,0.25,WUHU21623XXSP,2013-05-04 16:38:00,
2013-05-04 12:43:00,55.9,51.8,29.95,East,90,0.0,0.0,86,0.00,,,0.25,WUHU21623XXSP,2013-05-04 16:43:00,
2013-05-04 12:48:00,55.8,51.6,29.95,East,90,0.0,0.0,86,0.00,,,0.25,WUHU21623XXSP,2013-05-04 16:48:00,
2013-05-04 12:53:00,55.4,51.2,29.96,East,90,0.0,0.0,86,0.00,,,0.25,WUHU21623XXSP,2013-05-04 16:53:00,
2013-05-04 12:58:00,55.2,51.0,29.96,East,90,0.0,0.0,86,0.00,,,0.25,WUHU21623XXSP,2013-05-04 16:58:00,
2013-05-04 13:04:00,55.0,50.9,29.96,East,90,0.0,0.0,86,0.00,,,0.25,WUHU21623XXSP,2013-05-04 17:04:00,
2013-05-04 13:09:00,55.0,51.2,29.96,East,90,0.0,0.0,87,0.00,,,0.25,WUHU21623XXSP,2013-05-04 17:09:00,
2013-05-04 13:14:00,54.9,51.0,29.95,East,90,0.0,0.0,87,0.00,,,0.25,WUHU21623XXSP,2013-05-04 17:14:00,
2013-05-04 13:19:00,54.9,51.0,29.95,East,90,0.0,0.0,87,0.00,,,0.25,WUHU21623XXSP,2013-05-04 17:19:00,
2013-05-04 13:24:00,54.7,50.8,29.94,East,90,0.0,0.0,87,0.00,,,0.25,WUHU21623XXSP,2013-05-04 17:24:00,
2013-05-04 13:29:00,54.7,50.8,29.94,East,90,0.0,0.0,87,0.02,,,0.28,WUHU21623XXSP,2013-05-04 17:29:00,
2013-05-04 13:34:00,54.7,50.8,29.94,East,90,0.0,0.0,87,0.02,,,0.28,WUHU21623XXSP,2013-05-04 17:34:00,
2013-05-04 13:39:00,54.5,50.7,29.94,East,90,0.0,0.0,87,0.02,,,0.28,WUHU21623XXSP,2013-05-04 17:39:00,
2013-05-04 13:44:00,54.1,50.3,29.94,East,90,0.0,0.0,87,0.02,,,0.28,WUHU21623XXSP,2013-05-04 17:44:00,
2013-05-04 13:49:00,54.0,50.1,29.94,East,90,0.0,0.0,87,0.04,,,0.30,WUHU21623XXSP,2013-05-04 17:49:00,
2013-05-04 13:54:00,54.0,50.5,29.94,East,90,0.0,0.0,88,0.07,,,0.32,WUHU21623XXSP,2013-05-04 17:54:00,
2013-05-04 13:59:00,54.1,50.6,29.95,East,90,0.0,0.0,88,0.07,,,0.32,WUHU21623XXSP,2013-05-04 17:59:00,
2013-05-04 14:04:00,54.0,50.5,29.95,East,90,0.0,0.0,88,0.07,,,0.32,WUHU21623XXSP,2013-05-04 18:04:00,
2013-05-04 14:09:00,54.1,50.6,29.95,East,90,0.0,0.0,88,0.07,,,0.32,WUHU21623XXSP,2013-05-04 18:09:00,
2013-05-04 14:14:00,54.1,50.6,29.95,East,90,0.0,0.0,88,0.07,,,0.32,WUHU21623XXSP,2013-05-04 18:14:00,
2013-05-04 14:19:00,54.1,50.6,29.96,East,90,0.0,0.0,88,0.07,,,0.32,WUHU21623XXSP,2013-05-04 18:19:00,
2013-05-04 14:24:00,54.0,50.5,29.95,East,90,0.0,0.0,88,0.07,,,0.32,WUHU21623XXSP,2013-05-04 18:24:00,
2013-05-04 14:29:00,53.8,50.3,29.95,East,90,0.0,0.0,88,0.04,,,0.32,WUHU21623XXSP,2013-05-04 18:29:00,
2013-05-04 14:34:00,53.8,50.3,29.95,East,90,0.0,0.0,88,0.04,,,0.32,WUHU21623XXSP,2013-05-04 18:34:00,
2013-05-04 14:39:00,54.0,50.5,29.95,East,90,0.0,0.0,88,0.07,,,0.34,WUHU21623XXSP,2013-05-04 18:39:00,
2013-05-04 14:44:00,54.0,50.5,29.94,East,90,0.0,0.0,88,0.07,,,0.34,WUHU21623XXSP,2013-05-04 18:44:00,
2013-05-04 14:49:00,53.8,50.3,29.94,East,90,0.0,0.0,88,0.07,,,0.36,WUHU21623XXSP,2013-05-04 18:49:00,
2013-05-04 14:54:00,54.0,50.5,29.94,East,90,0.0,0.0,88,0.04,,,0.36,WUHU21623XXSP,2013-05-04 18:54:00,
2013-05-04 14:59:00,53.8,50.3,29.94,East,90,0.0,0.0,88,0.04,,,0.36,WUHU21623XXSP,2013-05-04 18:59:00,
2013-05-04 15:04:00,53.8,50.3,29.94,East,90,0.0,0.0,88,0.07,,,0.39,WUHU21623XXSP,2013-05-04 19:04:00,
2013-05-04 15:09:00,54.1,50.6,29.94,East,90,0.0,0.0,88,0.07,,,0.39,WUHU21623XXSP,2013-05-04 19:09:00,
2013-05-04 15:14:00,54.1,50.6,29.94,East,90,0.0,0.0,88,0.09,,,0.41,WUHU21623XXSP,2013-05-04 19:14:00,
2013-05-04 15:19:00,54.1,50.6,29.94,East,90,0.0,0.0,88,0.09,,,0.41,WUHU21623XXSP,2013-05-04 19:19:00,
2013-05-04 15:24:00,54.3,50.8,29.94,East,90,0.0,0.0,88,0.09,,,0.41,WUHU21623XXSP,2013-05-04 19:24:00,
2013-05-04 15:29:00,54.3,50.8,29.95,East,90,0.0,0.0,88,0.09,,,0.41,WUHU21623XXSP,2013-05-04 19:29:00,
2013-05-04 15:34:00,54.3,50.8,29.95,East,90,0.0,0.0,88,0.09,,,0.41,WUHU21623XXSP,2013-05-04 19:34:00,
2013-05-04 15:39:00,54.1,50.6,29.96,East,90,0.0,0.0,88,0.07,,,0.41,WUHU21623XXSP,2013-05-04 19:39:00,
2013-05-04 15:44:00,54.1,50.6,29.96,East,90,0.0,0.0,88,0.09,,,0.43,WUHU21623XXSP,2013-05-04 19:44:00,
2013-05-04 15:49:00,54.1,50.6,29.96,East,90,0.0,0.0,88,0.09,,,0.45,WUHU21623XXSP,2013-05-04 19:49:00,
2013-05-04 15:54:00,54.1,50.6,29.96,East,90,0.0,0.0,88,0.11,,,0.47,WUHU21623XXSP,2013-05-04 19:54:00,
2013-05-04 15:59:00,54.1,50.6,29.97,East,90,0.0,0.0,88,0.13,,,0.50,WUHU21623XXSP,2013-05-04 19:59:00,
2013-05-04 16:04:00,54.3,50.8,29.96,East,90,0.0,0.0,88,0.13,,,0.52,WUHU21623XXSP,2013-05-04 20:04:00,
2013-05-04 16:09:00,54.1,50.6,29.96,East,90,0.0,0.0,88,0.18,,,0.56,WUHU21623XXSP,2013-05-04 20:09:00,
2013-05-04 16:14:00,54.1,50.6,29.95,East,90,0.0,0.0,88,0.18,,,0.58,WUHU21623XXSP,2013-05-04 20:14:00,
2013-05-04 16:19:00,54.3,50.8,29.94,East,90,0.0,0.0,88,0.18,,,0.58,WUHU21623XXSP,2013-05-04 20:19:00,
2013-05-04 16:24:00,54.3,50.8,29.94,East,90,0.0,0.0,88,0.20,,,0.61,WUHU21623XXSP,2013-05-04 20:24:00,
2013-05-04 16:29:00,54.3,50.8,29.94,East,90,0.0,0.0,88,0.22,,,0.63,WUHU21623XXSP,2013-05-04 20:29:00,
2013-05-04 16:34:00,54.3,50.8,29.94,East,90,0.0,0.0,88,0.22,,,0.63,WUHU21623XXSP,2013-05-04 20:34:00,
2013-05-04 16:39:00,54.3,50.8,29.93,East,90,0.0,0.0,88,0.24,,,0.65,WUHU21623XXSP,2013-05-04 20:39:00,
2013-05-04 16:44:00,54.3,50.8,29.94,East,90,0.0,0.0,88,0.22,,,0.65,WUHU21623XXSP,2013-05-04 20:44:00,
2013-05-04 16:49:00,54.5,51.0,29.94,East,90,0.0,0.0,88,0.22,,,0.67,WUHU21623XXSP,2013-05-04 20:49:00,
2013-05-04 16:54:00,54.5,51.0,29.94,East,90,0.0,0.0,88,0.22,,,0.69,WUHU21623XXSP,2013-05-04 20:54:00,
2013-05-04 16:59:00,54.5,51.0,29.94,East,90,0.0,0.0,88,0.20,,,0.69,WUHU21623XXSP,2013-05-04 20:59:00,
2013-05-04 17:04:00,54.3,50.8,29.94,East,90,0.0,0.0,88,0.18,,,0.69,WUHU21623XXSP,2013-05-04 21:04:00,
2013-05-04 17:09:00,54.7,51.2,29.93,East,90,0.0,0.0,88,0.13,,,0.69,WUHU21623XXSP,2013-05-04 21:09:00,
2013-05-04 17:14:00,54.7,51.2,29.94,East,90,0.0,0.0,88,0.13,,,0.71,WUHU21623XXSP,2013-05-04 21:14:00,
2013-05-04 17:19:00,54.7,51.2,29.94,East,90,0.0,0.0,88,0.11,,,0.71,WUHU21623XXSP,2013-05-04 21:19:00,
2013-05-04 17:24:00,54.9,51.3,29.94,East,90,0.0,0.0,88,0.11,,,0.71,WUHU21623XXSP,2013-05-04 21:24:00,
2013-05-04 17:29:00,54.7,51.2,29.93,East,90,0.0,0.0,88,0.11,,,0.74,WUHU21623XXSP,2013-05-04 21:29:00,
2013-05-04 17:34:00,54.7,51.2,29.93,East,90,0.0,0.0,88,0.09,,,0.74,WUHU21623XXSP,2013-05-04 21:34:00,
2013-05-04 17:39:00,54.7,51.2,29.93,East,90,0.0,0.0,88,0.09,,,0.74,WUHU21623XXSP,2013-05-04 21:39:00,
2013-05-04 17:44:00,54.5,51.0,29.92,East,90,0.0,0.0,88,0.09,,,0.74,WUHU21623XXSP,2013-05-04 21:44:00,
2013-05-04 17:49:00,54.3,50.8,29.92,East,90,0.0,0.0,88,0.10,,,0.77,WUHU21623XXSP,2013-05-04 21:49:00,
2013-05-04 17:54:00,54.3,50.8,29.93,East,90,0.0,0.0,88,0.10,,,0.79,WUHU21623XXSP,2013-05-04 21:54:00,
2013-05-04 17:59:00,54.3,50.8,29.93,East,90,0.0,0.0,88,0.10,,,0.79,WUHU21623XXSP,2013-05-04 21:59:00,
2013-05-04 18:04:00,54.3,50.8,29.94,East,90,0.0,0.0,88,0.10,,,0.79,WUHU21623XXSP,2013-05-04 22:04:00,
2013-05-04 18:09:00,54.3,50.8,29.95,East,90,0.0,0.0,88,0.10,,,0.79,WUHU21623XXSP,2013-05-04 22:09:00,
2013-05-04 18:14:00,54.3,50.8,29.94,East,90,0.0,0.0,88,0.08,,,0.79,WUHU21623XXSP,2013-05-04 22:14:00,
2013-05-04 18:19:00,54.3,50.8,29.95,East,90,0.0,0.0,88,0.10,,,0.81,WUHU21623XXSP,2013-05-04 22:19:00,
2013-05-04 18:24:00,54.3,50.8,29.94,East,90,0.0,0.0,88,0.12,,,0.84,WUHU21623XXSP,2013-05-04 22:24:00,
2013-05-04 18:29:00,54.3,50.8,29.95,East,90,0.0,0.0,88,0.12,,,0.86,WUHU21623XXSP,2013-05-04 22:29:00,
2013-05-04 18:34:00,54.3,50.8,29.96,East,90,0.0,0.0,88,0.14,,,0.88,WUHU21623XXSP,2013-05-04 22:34:00,
2013-05-04 18:39:00,54.3,50.8,29.95,East,90,0.0,0.0,88,0.16,,,0.90,WUHU21623XXSP,2013-05-04 22:39:00,
2013-05-04 18:44:00,54.1,50.6,29.95,East,90,0.0,0.0,88,0.19,,,0.92,WUHU21623XXSP,2013-05-04 22:44:00,
2013-05-04 18:49:00,54.1,50.6,29.95,East,90,0.0,0.0,88,0.20,,,0.97,WUHU21623XXSP,2013-05-04 22:49:00,
2013-05-04 18:54:00,54.1,50.6,29.95,East,90,0.0,0.0,88,0.20,,,0.99,WUHU21623XXSP,2013-05-04 22:54:00,
2013-05-04 18:59:00,54.1,50.6,29.94,East,90,0.0,0.0,88,0.20,,,0.99,WUHU21623XXSP,2013-05-04 22:59:00,
2013-05-04 19:04:00,54.1,50.6,29.94,East,90,0.0,0.0,88,0.20,,,0.99,WUHU21623XXSP,2013-05-04 23:04:00,
2013-05-04 19:09:00,54.1,50.6,29.94,East,90,0.0,0.0,88,0.20,,,0.99,WUHU21623XXSP,2013-05-04 23:09:00,
2013-05-04 19:14:00,54.1,50.6,29.94,East,90,0.0,0.0,88,0.22,,,1.01,WUHU21623XXSP,2013-05-04 23:14:00,
2013-05-04 19:19:00,54.1,50.6,29.94,East,90,0.0,0.0,88,0.20,,,1.03,WUHU21623XXSP,2013-05-04 23:19:00,
2013-05-04 19:24:00,54.1,50.6,29.94,East,90,0.0,0.0,88,0.20,,,1.03,WUHU21623XXSP,2013-05-04 23:24:00,
2013-05-04 19:29:00,54.1,50.6,29.94,East,90,0.0,0.0,88,0.20,,,1.06,WUHU21623XXSP,2013-05-04 23:29:00,
2013-05-04 19:34:00,54.1,50.6,29.93,East,90,0.0,0.0,88,0.20,,,1.08,WUHU21623XXSP,2013-05-04 23:34:00,
2013-05-04 19:39:00,54.1,50.6,29.93,East,90,0.0,0.0,88,0.22,,,1.12,WUHU21623XXSP,2013-05-04 23:39:00,
2013-05-04 19:44:00,54.1,50.6,29.92,East,90,0.0,0.0,88,0.20,,,1.12,WUHU21623XXSP,2013-05-04 23:44:00,
2013-05-04 19:49:00,54.1,50.6,29.92,East,90,0.0,0.0,88,0.15,,,1.12,WUHU21623XXSP,2013-05-04 23:49:00,
2013-05-04 19:54:00,54.3,50.8,29.92,East,90,0.0,0.0,88,0.13,,,1.12,WUHU21623XXSP,2013-05-04 23:54:00,
2013-05-04 19:59:00,54.1,50.6,29.93,East,90,0.0,0.0,88,0.13,,,1.12,WUHU21623XXSP,2013-05-04 23:59:00,
2013-05-04 20:04:00,54.1,50.6,29.92,East,90,0.0,0.0,88,0.13,,,1.12,WUHU21623XXSP,2013-05-05 00:04:00,
2013-05-04 20:09:00,54.1,50.6,29.92,East,90,0.0,0.0,88,0.13,,,1.12,WUHU21623XXSP,2013-05-05 00:09:00,
2013-05-04 20:14:00,54.1,50.6,29.91,East,90,0.0,0.0,88,0.11,,,1.12,WUHU21623XXSP,2013-05-05 00:14:00,
2013-05-04 20:19:00,54.3,50.8,29.91,East,90,0.0,0.0,88,0.11,,,1.12,WUHU21623XXSP,2013-05-05 00:19:00,
2013-05-04 20:24:00,54.3,50.8,29.91,East,90,0.0,0.0,88,0.09,,,1.12,WUHU21623XXSP,2013-05-05 00:24:00,
2013-05-04 20:29:00,54.3,50.8,29.91,East,90,0.0,0.0,88,0.07,,,1.12,WUHU21623XXSP,2013-05-05 00:29:00,
2013-05-04 20:34:00,54.1,50.6,29.91,East,90,0.0,0.0,88,0.04,,,1.12,WUHU21623XXSP,2013-05-05 00:34:00,
2013-05-04 20:39:00,54.1,50.6,29.91,East,90,0.0,0.0,88,0.02,,,1.14,WUHU21623XXSP,2013-05-05 00:39:00,
2013-05-04 20:44:00,54.1,50.6,29.91,East,90,0.0,0.0,88,0.02,,,1.14,WUHU21623XXSP,2013-05-05 00:44:00,
2013-05-04 20:49:00,54.1,50.6,29.91,East,90,0.0,0.0,88,0.04,,,1.17,WUHU21623XXSP,2013-05-05 00:49:00,
2013-05-04 20:54:00,54.1,50.6,29.91,East,90,0.0,0.0,88,0.04,,,1.17,WUHU21623XXSP,2013-05-05 00:54:00,
2013-05-04 20:59:00,54.1,50.6,29.91,ESE,112,2.3,2.7,88,0.04,,,1.17,WUHU21623XXSP,2013-05-05 00:59:00,
2013-05-04 21:04:00,54.1,50.6,29.92,East,90,0.0,2.7,88,0.04,,,1.17,WUHU21623XXSP,2013-05-05 01:04:00,
2013-05-04 21:09:00,54.1,50.6,29.92,East,90,0.0,2.7,88,0.04,,,1.17,WUHU21623XXSP,2013-05-05 01:09:00,
2013-05-04 21:14:00,54.0,50.5,29.92,East,90,0.0,0.0,88,0.04,,,1.17,WUHU21623XXSP,2013-05-05 01:14:00,
2013-05-04 21:19:00,54.0,50.5,29.92,East,90,0.0,0.0,88,0.04,,,1.17,WUHU21623XXSP,2013-05-05 01:19:00,
2013-05-04 21:24:00,54.0,50.5,29.91,East,90,0.0,0.0,88,0.04,,,1.17,WUHU21623XXSP,2013-05-05 01:24:00,
2013-05-04 21:29:00,54.0,50.5,29.91,East,90,0.0,0.0,88,0.07,,,1.19,WUHU21623XXSP,2013-05-05 01:29:00,
2013-05-04 21:34:00,54.0,50.5,29.91,East,90,0.0,0.0,88,0.07,,,1.19,WUHU21623XXSP,2013-05-05 01:34:00,
2013-05-04 21:39:00,54.0,50.5,29.91,East,90,0.0,0.0,88,0.07,,,1.21,WUHU21623XXSP,2013-05-05 01:39:00,
2013-05-04 21:44:00,53.8,50.3,29.91,East,90,0.0,0.0,88,0.04,,,1.21,WUHU21623XXSP,2013-05-05 01:44:00,
2013-05-04 21:49:00,53.8,50.3,29.91,East,90,0.0,0.0,88,0.04,,,1.21,WUHU21623XXSP,2013-05-05 01:49:00,
2013-05-04 21:54:00,53.8,50.3,29.92,East,90,0.0,0.0,88,0.04,,,1.21,WUHU21623XXSP,2013-05-05 01:54:00,
2013-05-04 21:59:00,53.8,50.3,29.92,East,90,0.0,0.0,88,0.04,,,1.21,WUHU21623XXSP,2013-05-05 01:59:00,
2013-05-04 22:04:00,53.8,50.3,29.92,East,90,0.0,0.0,88,0.04,,,1.21,WUHU21623XXSP,2013-05-05 02:04:00,
2013-05-04 22:09:00,53.8,50.3,29.93,East,90,0.0,0.0,88,0.04,,,1.21,WUHU21623XXSP,2013-05-05 02:09:00,
2013-05-04 22:14:00,53.8,50.3,29.93,East,90,0.0,0.0,88,0.04,,,1.21,WUHU21623XXSP,2013-05-05 02:14:00,
2013-05-04 22:19:00,53.8,50.3,29.93,East,90,0.0,0.0,88,0.07,,,1.23,WUHU21623XXSP,2013-05-05 02:19:00,
2013-05-04 22:24:00,53.6,50.1,29.93,East,90,0.0,0.0,88,0.07,,,1.23,WUHU21623XXSP,2013-05-05 02:24:00,
2013-05-04 22:29:00,53.6,50.1,29.93,East,90,0.0,0.0,88,0.04,,,1.23,WUHU21623XXSP,2013-05-05 02:29:00,
2013-05-04 22:34:00,53.6,50.1,29.93,East,90,0.0,0.0,88,0.04,,,1.23,WUHU21623XXSP,2013-05-05 02:34:00,
2013-05-04 22:39:00,53.4,49.9,29.92,East,90,0.0,0.0,88,0.04,,,1.25,WUHU21623XXSP,2013-05-05 02:39:00,
2013-05-04 22:44:00,53.4,49.9,29.92,East,90,0.0,0.0,88,0.04,,,1.25,WUHU21623XXSP,2013-05-05 02:44:00,
2013-05-04 22:49:00,53.4,49.9,29.91,East,90,0.0,0.0,88,0.04,,,1.25,WUHU21623XXSP,2013-05-05 02:49:00,
2013-05-04 22:54:00,53.4,49.9,29.91,East,90,0.0,0.0,88,0.04,,,1.25,WUHU21623XXSP,2013-05-05 02:54:00,
2013-05-04 22:59:00,53.4,49.9,29.91,East,90,0.0,0.0,88,0.04,,,1.25,WUHU21623XXSP,2013-05-05 02:59:00,
2013-05-04 23:04:00,53.4,50.2,29.91,East,90,0.0,0.0,89,0.07,,,1.28,WUHU21623XXSP,2013-05-05 03:04:00,
2013-05-04 23:09:00,53.2,49.7,29.91,East,90,0.0,0.0,88,0.07,,,1.28,WUHU21623XXSP,2013-05-05 03:09:00,
2013-05-04 23:14:00,53.4,49.9,29.91,East,90,0.0,0.0,88,0.07,,,1.28,WUHU21623XXSP,2013-05-05 03:14:00,
2013-05-04 23:19:00,53.4,49.9,29.91,East,90,0.0,0.0,88,0.04,,,1.28,WUHU21623XXSP,2013-05-05 03:19:00,
2013-05-04 23:24:00,53.4,49.9,29.91,East,90,0.0,0.0,88,0.04,,,1.28,WUHU21623XXSP,2013-05-05 03:24:00,
2013-05-04 23:29:00,53.4,49.9,29.91,East,90,0.0,0.0,88,0.07,,,1.30,WUHU21623XXSP,2013-05-05 03:29:00,
2013-05-04 23:34:00,53.4,49.9,29.91,East,90,0.0,0.0,88,0.07,,,1.30,WUHU21623XXSP,2013-05-05 03:34:00,
2013-05-04 23:39:00,53.4,49.9,29.91,East,90,0.0,0.0,88,0.08,,,1.33,WUHU21623XXSP,2013-05-05 03:39:00,
2013-05-04 23:44:00,53.2,50.1,29.91,East,90,0.0,0.0,89,0.08,,,1.33,WUHU21623XXSP,2013-05-05 03:44:00,
2013-05-04 23:49:00,53.4,49.9,29.91,East,90,0.0,0.0,88,0.08,,,1.33,WUHU21623XXSP,2013-05-05 03:49:00,
2013-05-04 23:54:00,53.2,49.7,29.91,East,90,0.0,0.0,88,0.10,,,1.35,WUHU21623XXSP,2013-05-05 03:54:00,
2013-05-04 23:59:00,53.4,49.9,29.91,East,90,0.0,0.0,88,0.10,,,1.35,WUHU21623XXSP,2013-05-05 03:59:00,